Hauptseite
METAR-TAF:

METAR-TAF

Flughäfen :

Reims, Frankreich

Breite: 49-12-31N, Länge: 004-09-24E, Höhe: 95 m

Beobachtung

Neuester Wetterbericht von vor 23 Minuten, um 12:30 UTC
Wind 12 kt aus Nord/Nordost
Temperatur 15°C
Luftfeuchtigkeit 72%
Luftdruck 1030 hPa
Sichtweite 10 km oder mehr
Geschlossene Wolkendecke in der Höhe von 2000 ft

METAR: LFQA 221230Z AUTO 02012KT 9999 OVC020 15/10 Q1030

Zeit: 14:53 (12:53 UTC)


TAF: fehlend

Wetterbeobachtungen und Prognosen von mehr als 4000 Flughäfen (METAR und TAF Bericht).

Die verfügbaren Stationen werden durch gelbe und rote Markierungen auf der Karte dargestellt.

Führen Sie die Maus auf sie, um den Namen der Station zu sehen.

Darauf klicken, um die Beobachtung von Wetterbeobachtungen und Prognosen zu sehen.

Um die Karte zu ändern : klicken Sie auf den grünen Tasten mit einem schwarzen Kreuz Zum Vergrößern, auf den grünen Button mit einem Gedankenstrich zu verkleinern, oder auf die grünen Pfeile für benachbarte Karten.


METAR-TAF: